Location: hvezdarna zebrak
(49.8744°N, 13.8989°E)
Time: 19:42:51
(UTC+02:00)

Tiangong - Pass Details

Date: 20 March 2026
Orbit: 376 x 385 km, 41.5° (Epoch: 18 April)

Event Time Altitude Azimuth Distance (km) Brightness Sun altitude
Exits shadow 04:53:06 14° 208° (SSW) 1,162 -0.1 -12.7°
Maximum altitude 04:53:52 16° 191° (S) 1,116 -0.1 -12.6°
Drops below altitude 10° 04:55:51 10° 152° (SSE) 1,399 0.9 -12.3°
Sets 04:58:29 0° 129° (SE) 2,255 2.3 -11.9°
